TimeEDT,TemperatureF,Dew PointF,Humidity,Sea Level PressureIn,VisibilityMPH,Wind Direction,Wind SpeedMPH,Gust SpeedMPH,PrecipitationIn,Events,Conditions,WindDirDegrees,DateUTC
12:56 AM,66.0,62.1,87,30.07,10.0,Calm,Calm,-,N/A,,Clear,0,2013-07-31 04:56:00
1:56 AM,64.9,61.0,87,30.07,10.0,Calm,Calm,-,N/A,,Clear,0,2013-07-31 05:56:00
2:56 AM,62.1,60.1,93,30.07,10.0,Calm,Calm,-,N/A,,Clear,0,2013-07-31 06:56:00
3:56 AM,64.0,60.1,87,30.07,10.0,Calm,Calm,-,N/A,,Clear,0,2013-07-31 07:56:00
4:56 AM,62.1,57.9,86,30.09,10.0,Calm,Calm,-,N/A,,Clear,0,2013-07-31 08:56:00
5:56 AM,61.0,57.9,90,30.10,10.0,Calm,Calm,-,N/A,,Clear,0,2013-07-31 09:56:00
6:56 AM,66.9,59.0,76,30.11,10.0,Calm,Calm,-,N/A,,Clear,0,2013-07-31 10:56:00
7:56 AM,71.1,61.0,70,30.12,10.0,NNW,4.6,-,N/A,,Clear,340,2013-07-31 11:56:00
8:56 AM,73.9,62.1,66,30.12,10.0,NNW,5.8,-,N/A,,Clear,340,2013-07-31 12:56:00
9:56 AM,73.9,61.0,64,30.12,10.0,North,6.9,-,N/A,,Clear,350,2013-07-31 13:56:00
10:56 AM,75.9,62.1,62,30.12,10.0,North,5.8,-,N/A,,Clear,10,2013-07-31 14:56:00
11:56 AM,77.0,62.1,60,30.10,10.0,WNW,4.6,-,N/A,,Clear,300,2013-07-31 15:56:00
12:56 PM,78.1,64.0,62,30.09,10.0,Calm,Calm,-,N/A,,Mostly Cloudy,0,2013-07-31 16:56:00
1:56 PM,79.0,60.1,52,30.09,10.0,SSW,9.2,-,N/A,,Scattered Clouds,210,2013-07-31 17:56:00
2:56 PM,78.1,62.1,58,30.09,10.0,SSW,10.4,-,N/A,,Clear,200,2013-07-31 18:56:00
3:56 PM,79.0,55.9,45,30.08,10.0,SW,12.7,-,N/A,,Clear,220,2013-07-31 19:56:00
4:56 PM,78.1,54.0,43,30.07,10.0,SW,8.1,-,N/A,,Clear,220,2013-07-31 20:56:00
5:56 PM,77.0,59.0,54,30.07,10.0,SW,11.5,-,N/A,,Clear,230,2013-07-31 21:56:00
6:56 PM,73.9,57.0,55,30.06,10.0,SW,6.9,-,N/A,,Clear,230,2013-07-31 22:56:00
7:56 PM,71.1,57.9,63,30.07,10.0,SW,6.9,-,N/A,,Clear,230,2013-07-31 23:56:00
8:56 PM,69.1,61.0,75,30.07,10.0,SW,4.6,-,N/A,,Clear,230,2013-08-01 00:56:00
9:56 PM,70.0,61.0,73,30.07,10.0,SW,3.5,-,N/A,,Clear,220,2013-08-01 01:56:00
10:56 PM,69.1,61.0,75,30.07,10.0,SW,3.5,-,N/A,,Clear,220,2013-08-01 02:56:00
11:56 PM,64.9,61.0,87,30.07,10.0,Calm,Calm,-,N/A,,Clear,0,2013-08-01 03:56:00